QPF
0.00 0.00 0.00 0.00 0.00 0.00 0.00 0.00 0.00 0.00 0.00 0.00 0.00 0.00 0.00 0.00 0.00 0.00 0.00 0.00 0.00 0.00 0.00 0.00 0.00 0.00 0.00 0.00 0.00 0.00 0.00 0.00 0.00 0.00 0.00 0.00 0.00 0.00 0.00 0.00 0.00 0.00 0.00
0.00 0.00 0.00 0.00 0.00 0.00 0.00 0.00 0.00 0.00 0.00 0.00 0.00 0.00 0.00 0.00 0.00 0.00 0.00 0.00 0.00 0.00 0.00 0.00 0.00 0.00 0.00 0.00 0.00 0.00 0.00 0.00 0.00 0.00 0.00 0.00 0.00 0.00 0.00 0.00 0.00 0.00 0.00
0.00 0.00 0.00 0.00 0.00 0.00 0.00 0.00 0.00 0.00 0.00 0.00 0.00 0.00 0.00 0.00 0.00 0.00 0.00 0.00 0.00 0.00 0.00 0.00 0.00 0.00 0.00 0.00 0.00 0.00 0.00 0.00 0.00 0.00 0.00 0.00 0.00 0.00 0.00 0.00 0.00 0.00 0.00
0.00 0.00 0.00 0.00 0.00 0.00 0.00 0.00 0.00 0.00 0.00 0.00 0.00 0.00 0.00 0.00 0.00 0.00 0.00 0.00 0.00 0.00 0.00 0.00 0.00 0.00 0.00 0.00 0.00 0.00 0.00 0.00 0.00 0.00 0.00 0.00 0.00 0.00 0.01 0.01 0.01 0.01 0.01
0.00 0.00 0.00 0.00 0.00 0.00 0.00 0.00 0.00 0.00 0.00 0.00 0.00 0.00 0.00 0.00 0.00 0.00 0.00 0.00 0.00 0.00 0.00 0.00 0.00 0.00 0.00 0.00 0.00 0.00 0.00 0.00 0.00 0.00 0.00 0.00 0.00 0.00 0.01 0.01 0.01 0.02 0.01
0.00 0.00 0.00 0.00 0.00 0.00 0.00 0.00 0.00 0.00 0.00 0.00 0.00 0.00 0.00 0.00 0.00 0.00 0.00 0.00 0.00 0.00 0.00 0.00 0.00 0.00 0.00 0.00 0.00 0.00 0.00 0.00 0.00 0.00 0.00 0.00 0.00 0.00 0.00 0.00 0.01 0.02 0.01
0.00 0.00 0.00 0.00 0.00 0.00 0.00 0.00 0.00 0.00 0.00 0.00 0.00 0.00 0.00 0.00 0.00 0.00 0.00 0.00 0.00 0.00 0.00 0.00 0.00 0.00 0.00 0.00 0.00 0.00 0.00 0.00 0.00 0.00 0.00 0.00 0.00 0.00 0.00 0.00 0.01 0.02 0.02
0.00 0.00 0.00 0.00 0.00 0.00 0.00 0.00 0.00 0.00 0.00 0.00 0.00 0.00 0.00 0.00 0.00 0.00 0.00 0.00 0.00 0.00 0.00 0.00 0.00 0.00 0.00 0.00 0.00 0.00 0.00 0.00 0.00 0.00 0.00 0.00 0.00 0.00 0.00 0.00 0.00 0.01 0.01
0.00 0.00 0.00 0.00 0.00 0.00 0.00 0.00 0.00 0.00 0.00 0.00 0.00 0.00 0.00 0.00 0.00 0.00 0.00 0.00 0.00 0.00 0.00 0.00 0.00 0.00 0.00 0.00 0.00 0.00 0.00 0.00 0.00 0.00 0.00 0.00 0.00 0.00 0.00 0.00 0.00 0.00 0.01
0.00 0.00 0.00 0.00 0.00 0.00 0.00 0.00 0.00 0.00 0.00 0.00 0.00 0.00 0.00 0.00 0.00 0.00 0.00 0.00 0.00 0.00 0.00 0.00 0.00 0.00 0.00 0.00 0.00 0.00 0.00 0.00 0.00 0.00 0.00 0.00 0.00 0.00 0.00 0.00 0.00 0.00 0.00
0.00 0.00 0.00 0.00 0.00 0.00 0.00 0.00 0.00 0.00 0.00 0.00 0.00 0.00 0.00 0.00 0.00 0.00 0.00 0.00 0.00 0.00 0.00 0.00 0.00 0.00 0.00 0.00 0.00 0.00 0.00 0.00 0.00 0.00 0.00 0.00 0.00 0.00 0.00 0.00 0.00 0.00 0.00
0.00 0.00 0.00 0.00 0.00 0.00 0.00 0.00 0.00 0.00 0.00 0.00 0.00 0.00 0.00 0.00 0.00 0.00 0.00 0.00 0.00 0.00 0.00 0.00 0.00 0.00 0.00 0.00 0.00 0.00 0.00 0.00 0.00 0.00 0.00 0.00 0.00 0.00 0.00 0.00 0.00 0.00 0.00
0.00 0.00 0.00 0.00 0.00 0.00 0.00 0.00 0.00 0.00 0.00 0.00 0.00 0.00 0.00 0.00 0.00 0.00 0.00 0.00 0.00 0.00 0.00 0.00 0.00 0.00 0.00 0.00 0.00 0.00 0.00 0.00 0.00 0.00 0.00 0.00 0.00 0.00 0.00 0.00 0.00 0.00 0.00
0.01 0.00 0.00 0.00 0.00 0.00 0.00 0.00 0.00 0.00 0.00 0.00 0.00 0.00 0.00 0.00 0.00 0.00 0.00 0.00 0.00 0.00 0.00 0.00 0.00 0.00 0.00 0.00 0.00 0.00 0.00 0.00 0.00 0.00 0.00 0.00 0.00 0.00 0.00 0.00 0.00 0.00 0.00
0.01 0.01 0.00 0.00 0.00 0.00 0.00 0.00 0.01 0.00 0.00 0.00 0.00 0.00 0.00 0.00 0.00 0.00 0.00 0.00 0.00 0.00 0.00 0.00 0.00 0.00 0.00 0.00 0.00 0.00 0.00 0.00 0.00 0.00 0.00 0.00 0.00 0.00 0.00 0.00 0.00 0.00 0.00
0.00 0.00 0.01 0.00 0.00 0.00 0.00 0.00 0.00 0.00 0.00 0.00 0.00 0.00 0.00 0.00 0.00 0.00 0.00 0.00 0.00 0.00 0.00 0.00 0.00 0.00 0.00 0.00 0.00 0.00 0.00 0.00 0.00 0.00 0.00 0.00 0.00 0.00 0.00 0.00 0.00 0.00 0.00
0.00 0.00 0.00 0.01 0.00 0.00 0.00 0.00 0.00 0.00 0.00 0.00 0.01 0.01 0.00 0.00 0.00 0.01 0.00 0.00 0.00 0.00 0.00 0.00 0.00 0.00 0.00 0.00 0.00 0.00 0.00 0.00 0.00 0.00 0.00 0.00 0.00 0.00 0.00 0.00 0.00 0.00 0.00
0.00 0.00 0.00 0.05 0.02 0.00 0.00 0.00 0.00 0.00 0.00 0.00 0.00 0.01 0.02 0.02 0.02 0.02 0.00 0.00 0.00 0.00 0.00 0.00 0.00 0.00 0.00 0.00 0.00 0.00 0.00 0.00 0.00 0.00 0.00 0.00 0.00 0.00 0.00 0.00 0.00 0.00 0.00
0.00 0.00 0.00 0.00 0.00 0.00 0.00 0.00 0.00 0.00 0.00 0.00 0.00 0.01 0.01 0.03 0.03 0.01 0.02 0.01 0.01 0.00 0.00 0.00 0.00 0.00 0.00 0.00 0.00 0.00 0.00 0.00 0.00 0.00 0.00 0.00 0.00 0.00 0.00 0.00 0.00 0.00 0.00
0.00 0.00 0.00 0.00 0.00 0.01 0.01 0.01 0.00 0.00 0.01 0.00 0.00 0.01 0.04 0.10 0.12 0.10 0.07 0.07 0.13 0.11 0.06 0.06 0.05 0.03 0.00 0.00 0.00 0.00 0.00 0.00 0.00 0.00 0.00 0.00 0.00 0.00 0.00 0.00 0.00 0.00 0.00
0.00 0.00 0.00 0.00 0.00 0.00 0.00 0.00 0.00 0.00 0.00 0.00 0.00 0.00 0.01 0.02 0.05 0.08 0.06 0.06 0.10 0.10 0.07 0.07 0.10 0.07 0.02 0.01 0.00 0.00 0.00 0.00 0.00 0.00 0.00 0.00 0.00 0.00 0.00 0.00 0.00 0.00 0.00
0.00 0.00 0.00 0.00 0.00 0.00 0.00 0.00 0.00 0.00 0.00 0.00 0.00 0.00 0.00 0.00 0.00 0.00 0.00 0.00 0.01 0.03 0.05 0.07 0.10 0.12 0.11 0.07 0.04 0.02 0.00 0.00 0.00 0.00 0.00 0.00 0.00 0.00 0.00 0.00 0.00 0.00 0.00
0.00 0.00 0.00 0.00 0.00 0.00 0.00 0.00 0.00 0.00 0.00 0.00 0.00 0.00 0.00 0.00 0.00 0.00 0.01 0.01 0.01 0.01 0.01 0.01 0.02 0.04 0.05 0.04 0.05 0.06 0.04 0.02 0.00 0.00 0.00 0.00 0.00 0.00 0.00 0.00 0.00 0.00 0.01
0.00 0.00 0.00 0.00 0.00 0.00 0.00 0.00 0.00 0.00 0.00 0.00 0.00 0.00 0.00 0.00 0.00 0.00 0.00 0.00 0.01 0.02 0.02 0.02 0.03 0.04 0.06 0.04 0.03 0.03 0.03 0.05 0.07 0.03 0.01 0.00 0.00 0.00 0.00 0.00 0.00 0.00 0.00
0.00 0.00 0.00 0.00 0.00 0.00 0.00 0.00 0.00 0.00 0.00 0.00 0.00 0.00 0.00 0.00 0.00 0.00 0.00 0.00 0.00 0.00 0.00 0.01 0.03 0.07 0.13 0.15 0.13 0.06 0.05 0.05 0.08 0.07 0.05 0.03 0.02 0.01 0.01 0.01 0.01 0.00 0.00
0.00 0.00 0.00 0.00 0.00 0.00 0.00 0.00 0.00 0.00 0.00 0.00 0.00 0.00 0.00 0.00 0.00 0.00 0.00 0.00 0.00 0.00 0.00 0.00 0.00 0.00 0.02 0.06 0.09 0.11 0.14 0.10 0.05 0.05 0.06 0.07 0.07 0.04 0.03 0.05 0.06 0.04 0.02
MSLP
1012.40 1012.10 1012.07 1012.77 1012.89 1013.30 1013.73 1014.00 1014.29 1014.70 1014.82 1015.13 1015.43 1015.68 1015.98 1016.21 1016.49 1016.77 1017.07 1017.22 1017.34 1017.54 1017.73 1017.94 1018.08 1018.24 1018.37 1018.41 1018.39 1018.46 1018.48 1018.50 1018.56 1018.60 1018.61 1018.73 1018.84 1018.89 1018.82 1018.96 1019.02 1019.06 1018.94
1011.34 1012.22 1011.90 1012.47 1013.05 1013.27 1013.67 1013.99 1014.42 1014.73 1015.05 1015.38 1015.55 1015.77 1016.02 1016.33 1016.60 1016.96 1017.15 1017.40 1017.47 1017.66 1017.85 1018.05 1018.22 1018.32 1018.53 1018.66 1018.68 1018.64 1018.62 1018.85 1018.97 1018.99 1018.96 1018.99 1019.11 1019.20 1019.29 1019.34 1019.34 1019.40 1019.36
1011.33 1012.08 1012.01 1012.40 1012.97 1013.28 1013.45 1013.87 1014.33 1014.60 1014.97 1015.40 1015.68 1015.99 1016.16 1016.41 1016.65 1017.08 1017.34 1017.51 1017.64 1017.79 1017.94 1018.13 1018.33 1018.49 1018.74 1018.89 1018.91 1018.83 1018.80 1018.93 1019.19 1019.40 1019.36 1019.46 1019.31 1019.40 1019.53 1019.60 1019.48 1019.48 1019.63
1011.01 1011.70 1011.86 1012.35 1012.94 1013.36 1013.57 1013.91 1014.05 1014.33 1014.75 1015.23 1015.68 1016.03 1016.19 1016.38 1016.66 1016.96 1017.22 1017.50 1017.72 1017.89 1018.15 1018.24 1018.38 1018.59 1018.80 1018.98 1019.10 1019.05 1019.00 1019.24 1019.31 1019.42 1019.49 1019.62 1019.46 1019.60 1019.55 1019.62 1019.63 1019.55 1019.63
1011.36 1011.81 1012.19 1012.53 1013.05 1013.49 1013.86 1014.09 1014.36 1014.35 1014.68 1015.06 1015.63 1016.08 1016.31 1016.48 1016.68 1016.98 1017.26 1017.44 1017.74 1017.93 1018.03 1018.23 1018.47 1018.76 1019.00 1019.10 1019.16 1019.11 1019.10 1019.41 1019.42 1019.48 1019.11 1019.85 1019.69 1019.84 1019.85 1019.88 1019.83 1019.75 1019.93
1011.27 1011.50 1012.16 1012.68 1013.13 1013.48 1013.88 1014.10 1014.43 1014.82 1015.12 1015.44 1015.69 1016.11 1016.37 1016.55 1016.76 1016.95 1017.24 1017.50 1017.70 1017.90 1018.05 1018.20 1018.51 1018.81 1019.02 1019.25 1019.30 1019.13 1019.15 1019.29 1019.56 1019.90 1019.78 1019.75 1019.83 1020.03 1020.03 1020.13 1020.21 1020.22 1020.37
1011.31 1011.70 1012.46 1012.95 1013.36 1013.45 1013.80 1014.21 1014.42 1014.78 1014.93 1015.33 1015.80 1016.15 1016.43 1016.69 1017.05 1017.31 1017.57 1017.59 1017.67 1017.85 1018.05 1018.22 1018.38 1018.79 1019.11 1019.07 1019.25 1019.30 1019.30 1019.27 1019.41 1019.75 1020.24 1019.60 1019.83 1020.14 1020.41 1020.53 1020.60 1020.67 1020.71
1011.47 1012.05 1012.55 1012.97 1013.28 1013.57 1013.77 1014.17 1014.48 1014.94 1015.27 1015.61 1016.05 1016.36 1016.58 1016.79 1017.08 1017.42 1017.74 1017.93 1018.12 1018.17 1018.17 1018.23 1018.43 1018.66 1019.02 1019.15 1019.15 1019.18 1019.26 1019.33 1019.76 1019.73 1020.26 1019.85 1019.87 1020.16 1020.58 1020.73 1020.80 1020.99 1021.03
1011.20 1011.98 1012.84 1013.21 1013.36 1013.73 1014.03 1014.45 1014.68 1014.91 1015.26 1015.55 1015.91 1016.31 1016.56 1016.83 1017.07 1017.29 1017.61 1017.90 1018.10 1018.34 1018.59 1018.59 1018.67 1018.74 1018.88 1019.06 1019.18 1019.13 1018.99 1019.13 1019.74 1019.99 1020.09 1020.08 1019.96 1020.20 1020.58 1020.88 1020.93 1021.12 1021.24
1011.57 1012.06 1012.69 1013.36 1013.69 1014.16 1014.49 1014.70 1014.95 1015.11 1015.30 1015.48 1015.72 1016.05 1016.42 1016.82 1017.10 1017.37 1017.61 1017.91 1018.08 1018.22 1018.48 1018.79 1018.87 1018.93 1018.80 1018.84 1018.98 1019.08 1018.96 1018.90 1019.51 1019.52 1019.93 1019.95 1019.78 1020.04 1020.41 1020.79 1021.04 1021.25 1021.37
1011.70 1012.04 1012.36 1013.06 1013.79 1014.27 1014.77 1015.12 1015.37 1015.59 1015.68 1015.88 1016.03 1016.22 1016.58 1016.79 1017.01 1017.27 1017.54 1017.65 1017.85 1018.15 1018.32 1018.50 1018.76 1019.03 1019.11 1018.95 1018.87 1018.92 1018.89 1018.87 1019.45 1019.55 1019.74 1019.75 1019.65 1019.95 1020.29 1020.71 1020.96 1021.09 1021.27
1011.58 1012.16 1012.46 1012.89 1013.32 1014.07 1014.42 1015.01 1015.46 1015.69 1015.94 1016.13 1016.36 1016.55 1016.73 1016.95 1017.03 1017.20 1017.34 1017.54 1017.72 1017.98 1018.34 1018.57 1018.70 1018.80 1018.96 1019.03 1019.20 1019.05 1018.87 1018.79 1019.35 1019.62 1019.73 1019.28 1019.40 1019.72 1020.00 1020.49 1020.89 1020.98 1021.21
1011.62 1012.21 1012.53 1012.90 1013.11 1013.65 1014.11 1014.78 1015.19 1015.44 1015.69 1015.93 1016.13 1016.32 1016.55 1016.72 1016.95 1017.00 1017.23 1017.45 1017.84 1018.00 1018.24 1018.45 1018.72 1018.98 1019.09 1019.08 1019.01 1018.98 1018.73 1018.65 1019.12 1019.37 1019.80 1019.32 1019.34 1019.44 1019.71 1020.20 1020.63 1020.94 1021.19
1011.46 1011.86 1012.35 1012.74 1013.13 1013.39 1013.77 1014.39 1014.54 1014.81 1015.12 1015.39 1015.49 1015.69 1016.13 1016.52 1016.67 1016.85 1017.03 1017.25 1017.52 1017.61 1018.06 1018.35 1018.64 1018.49 1018.82 1018.97 1018.83 1018.72 1018.62 1018.36 1018.71 1018.88 1019.15 1019.35 1019.46 1019.42 1019.60 1019.98 1020.38 1020.77 1021.02
1011.52 1011.80 1012.18 1012.58 1013.02 1013.20 1013.64 1014.03 1014.38 1014.44 1014.69 1014.85 1014.98 1015.18 1015.53 1015.88 1016.17 1016.44 1016.77 1017.03 1017.20 1017.12 1017.39 1017.70 1017.91 1018.20 1018.33 1018.27 1018.44 1018.50 1018.33 1018.18 1018.44 1018.78 1018.68 1018.81 1019.13 1019.17 1019.51 1019.87 1020.14 1020.40 1020.74
1011.56 1011.46 1011.64 1012.25 1012.48 1012.76 1013.30 1013.69 1014.07 1014.21 1014.32 1014.63 1014.79 1014.78 1014.81 1015.20 1015.67 1016.00 1016.19 1016.45 1016.70 1016.77 1016.98 1017.21 1017.39 1017.54 1017.69 1017.72 1017.60 1017.83 1017.88 1017.81 1018.07 1018.63 1018.57 1018.76 1018.87 1018.81 1019.21 1019.67 1020.06 1020.30 1020.45
1012.19 1011.90 1011.42 1011.89 1012.49 1012.70 1013.03 1013.16 1013.62 1013.77 1014.24 1014.60 1014.62 1014.56 1014.60 1014.87 1015.03 1015.30 1015.68 1016.00 1016.07 1016.26 1016.41 1016.69 1016.92 1016.91 1017.28 1017.20 1017.07 1016.96 1017.07 1017.22 1017.32 1017.67 1018.07 1018.33 1018.49 1018.57 1018.70 1019.20 1019.83 1020.12 1020.30
1012.51 1012.47 1012.26 1012.35 1013.05 1013.24 1013.43 1013.45 1013.62 1014.00 1014.13 1014.39 1014.60 1014.45 1014.37 1014.23 1014.34 1014.86 1015.30 1015.52 1015.55 1015.75 1015.95 1016.26 1016.35 1016.37 1016.45 1016.67 1016.63 1016.49 1016.53 1016.66 1016.78 1017.15 1017.46 1017.74 1018.00 1018.15 1018.40 1018.50 1019.03 1019.54 1019.99
1013.31 1013.18 1013.18 1013.32 1013.43 1013.76 1013.94 1014.02 1014.01 1014.11 1014.32 1014.25 1014.39 1014.63 1014.63 1014.63 1014.53 1014.52 1014.57 1014.69 1015.05 1015.28 1015.41 1015.47 1015.64 1015.68 1015.69 1016.06 1016.09 1016.09 1016.05 1016.02 1016.24 1016.51 1016.96 1017.35 1017.39 1017.33 1017.74 1018.01 1018.33 1018.82 1019.26
1013.84 1013.61 1013.60 1013.69 1013.77 1013.88 1014.14 1014.28 1014.44 1014.57 1014.57 1014.44 1014.35 1014.41 1014.53 1014.47 1014.57 1014.67 1014.60 1014.70 1014.87 1015.18 1015.25 1015.25 1015.40 1015.00 1014.89 1014.87 1015.13 1015.43 1015.47 1015.45 1015.64 1015.81 1016.33 1016.54 1016.76 1017.11 1017.50 1017.82 1018.09 1018.50 1018.96
1014.60 1014.43 1014.23 1014.32 1014.52 1014.53 1014.72 1014.90 1014.90 1015.07 1014.85 1014.73 1014.42 1014.33 1014.26 1014.20 1014.31 1014.50 1014.50 1014.48 1014.38 1014.74 1014.61 1014.63 1014.81 1015.05 1014.94 1014.69 1014.90 1015.04 1015.17 1015.07 1014.96 1015.19 1015.21 1015.61 1016.13 1016.28 1016.64 1017.00 1017.54 1018.08 1018.71
1015.20 1015.11 1015.04 1015.00 1014.94 1015.00 1015.12 1015.34 1015.33 1015.33 1014.98 1014.74 1014.57 1014.39 1014.37 1014.43 1014.41 1014.44 1014.50 1014.41 1014.39 1014.42 1014.41 1014.33 1014.28 1014.47 1014.49 1014.62 1014.52 1014.84 1014.79 1014.72 1014.80 1014.40 1014.32 1014.53 1014.83 1015.25 1015.79 1016.18 1016.75 1017.35 1017.94
1015.44 1015.47 1015.41 1015.39 1015.33 1015.24 1015.34 1015.42 1015.46 1015.35 1015.26 1015.20 1015.03 1014.84 1014.59 1014.29 1014.37 1014.42 1014.42 1014.43 1014.42 1014.53 1014.26 1014.14 1014.19 1014.19 1014.11 1014.08 1014.17 1014.18 1014.72 1014.28 1013.96 1013.73 1013.58 1013.75 1014.20 1014.48 1014.88 1015.36 1016.00 1016.55 1017.03
1015.48 1015.50 1015.50 1015.45 1015.45 1015.52 1015.49 1015.61 1015.89 1016.03 1016.15 1015.75 1015.48 1015.11 1014.78 1014.43 1014.26 1014.13 1013.99 1013.96 1014.13 1014.11 1014.05 1014.05 1013.88 1013.66 1013.67 1013.53 1013.82 1013.76 1013.39 1013.74 1014.32 1014.00 1013.43 1012.97 1013.33 1013.90 1014.27 1014.69 1015.17 1015.91 1016.36
1015.33 1015.58 1015.49 1015.50 1015.55 1015.59 1015.65 1015.83 1016.05 1016.08 1015.98 1015.62 1015.36 1015.26 1015.05 1014.79 1014.35 1014.14 1014.03 1013.95 1014.30 1014.37 1014.24 1013.88 1013.85 1013.78 1013.49 1013.38 1012.55 1012.63 1012.87 1012.86 1013.36 1013.66 1013.51 1013.40 1013.30 1013.14 1012.86 1013.51 1014.03 1014.25 1014.94
1015.11 1015.28 1015.39 1015.64 1015.70 1015.69 1015.84 1015.89 1016.02 1016.09 1016.01 1015.92 1015.67 1015.48 1015.08 1014.77 1014.58 1014.28 1013.93 1014.10 1014.10 1014.18 1014.18 1014.09 1013.97 1013.86 1013.76 1013.55 1012.88 1012.67 1012.52 1012.35 1012.08 1012.62 1012.51 1012.59 1012.12 1011.74 1012.15 1012.43 1013.38 1013.32 1013.58
Thickness
5783 5784 5782 5775 5774 5768 5764 5761 5758 5753 5751 5747 5742 5740 5737 5735 5731 5727 5723 5721 5719 5716 5715 5714 5712 5711 5709 5708 5708 5707 5708 5707 5706 5706 5706 5705 5704 5704 5704 5704 5704 5703 5705
5792 5782 5782 5776 5771 5768 5764 5760 5755 5752 5749 5745 5743 5740 5736 5733 5730 5725 5723 5720 5719 5716 5714 5711 5710 5710 5708 5706 5705 5705 5706 5703 5702 5701 5702 5701 5701 5701 5701 5701 5701 5701 5702
5790 5782 5780 5776 5770 5767 5765 5761 5755 5753 5749 5745 5742 5738 5736 5733 5729 5724 5721 5719 5717 5714 5712 5710 5708 5707 5705 5703 5702 5703 5703 5702 5700 5697 5697 5697 5698 5698 5698 5698 5699 5699 5699
5789 5782 5780 5775 5770 5766 5763 5759 5757 5755 5751 5747 5742 5738 5736 5733 5730 5726 5723 5720 5717 5714 5710 5708 5707 5706 5704 5701 5699 5700 5700 5699 5698 5696 5696 5694 5696 5695 5696 5697 5697 5697 5697
5782 5778 5774 5772 5766 5762 5758 5755 5753 5752 5749 5746 5741 5736 5734 5732 5729 5726 5722 5721 5716 5714 5712 5709 5706 5704 5702 5700 5698 5697 5698 5696 5696 5695 5698 5692 5695 5694 5694 5694 5695 5695 5694
5781 5779 5773 5768 5764 5761 5757 5754 5751 5748 5745 5742 5739 5735 5732 5730 5727 5725 5721 5718 5716 5713 5711 5709 5705 5702 5701 5698 5696 5697 5696 5695 5694 5691 5692 5693 5693 5691 5691 5692 5692 5691 5690
5779 5775 5768 5764 5760 5759 5755 5751 5749 5747 5746 5742 5737 5733 5730 5727 5723 5720 5717 5717 5715 5712 5710 5708 5706 5702 5699 5699 5696 5694 5694 5695 5695 5693 5688 5694 5693 5690 5688 5687 5687 5687 5687
5775 5770 5766 5762 5759 5756 5755 5750 5747 5744 5741 5738 5734 5731 5727 5725 5721 5717 5714 5712 5710 5708 5708 5707 5705 5702 5699 5696 5696 5694 5693 5693 5691 5691 5688 5692 5691 5689 5685 5684 5684 5683 5683
5774 5768 5761 5758 5757 5753 5750 5746 5744 5741 5738 5736 5733 5730 5727 5723 5720 5717 5713 5710 5708 5705 5702 5702 5702 5701 5699 5697 5695 5694 5694 5693 5691 5689 5686 5688 5689 5687 5683 5681 5680 5679 5679
5770 5767 5760 5755 5752 5748 5743 5741 5739 5737 5736 5734 5731 5728 5725 5721 5718 5715 5712 5708 5705 5703 5701 5698 5697 5697 5698 5696 5695 5694 5693 5693 5691 5692 5686 5687 5688 5685 5682 5679 5678 5675 5675
5766 5763 5761 5755 5748 5744 5739 5736 5733 5731 5730 5728 5726 5724 5721 5719 5716 5713 5710 5707 5705 5702 5699 5697 5694 5693 5692 5693 5693 5692 5692 5692 5688 5688 5686 5684 5686 5683 5681 5678 5675 5674 5672
5760 5758 5756 5753 5749 5742 5738 5735 5731 5729 5726 5723 5720 5718 5716 5713 5712 5710 5708 5705 5702 5700 5697 5694 5693 5691 5690 5690 5689 5689 5690 5690 5686 5683 5681 5683 5682 5680 5678 5675 5672 5671 5669
5759 5755 5752 5749 5746 5742 5739 5733 5730 5727 5725 5722 5719 5716 5713 5711 5708 5707 5705 5703 5698 5697 5695 5692 5689 5685 5684 5685 5685 5686 5688 5687 5685 5681 5676 5678 5677 5676 5674 5671 5668 5665 5664
5753 5754 5751 5747 5742 5740 5739 5733 5731 5728 5725 5722 5720 5718 5713 5710 5708 5704 5700 5699 5696 5695 5693 5690 5686 5685 5682 5680 5680 5682 5682 5684 5684 5682 5678 5673 5672 5672 5670 5667 5664 5661 5660
5748 5751 5750 5744 5740 5737 5735 5732 5728 5726 5723 5721 5720 5718 5714 5711 5709 5705 5700 5696 5693 5692 5689 5688 5686 5682 5680 5680 5679 5676 5676 5678 5679 5677 5678 5674 5670 5669 5667 5663 5660 5658 5656
5740 5747 5752 5745 5740 5736 5732 5730 5726 5723 5721 5718 5715 5714 5712 5707 5703 5701 5699 5696 5692 5690 5687 5685 5684 5681 5678 5676 5678 5678 5674 5672 5672 5672 5672 5669 5667 5666 5663 5659 5655 5653 5652
5731 5731 5743 5741 5736 5732 5729 5727 5722 5719 5714 5712 5712 5713 5710 5705 5701 5698 5695 5694 5691 5687 5685 5681 5679 5679 5674 5672 5675 5675 5673 5671 5667 5668 5668 5665 5663 5662 5659 5655 5650 5648 5646
5727 5726 5728 5730 5725 5723 5720 5718 5714 5711 5709 5706 5703 5705 5705 5705 5703 5695 5690 5687 5686 5684 5681 5678 5677 5677 5675 5671 5670 5669 5668 5666 5665 5661 5662 5661 5659 5656 5652 5652 5648 5644 5640
5716 5717 5717 5717 5716 5714 5711 5707 5705 5703 5700 5699 5697 5694 5693 5691 5690 5690 5689 5685 5679 5677 5676 5675 5671 5671 5670 5668 5666 5663 5663 5663 5661 5656 5655 5655 5654 5654 5649 5646 5643 5640 5638
5706 5708 5708 5707 5706 5705 5702 5700 5697 5695 5693 5691 5691 5689 5685 5683 5680 5679 5677 5675 5671 5667 5666 5665 5661 5663 5664 5665 5662 5658 5657 5658 5656 5653 5649 5649 5649 5646 5643 5638 5635 5633 5629
5695 5695 5697 5695 5693 5692 5690 5687 5685 5680 5682 5681 5681 5679 5679 5678 5674 5670 5667 5667 5665 5660 5660 5657 5654 5650 5649 5653 5648 5646 5645 5646 5650 5648 5648 5643 5641 5642 5640 5638 5632 5628 5621
5681 5683 5684 5683 5682 5680 5678 5675 5672 5670 5671 5672 5670 5668 5666 5664 5662 5659 5657 5655 5652 5649 5647 5645 5643 5640 5639 5637 5639 5632 5632 5635 5632 5641 5643 5641 5637 5636 5634 5632 5629 5624 5617
5672 5673 5673 5671 5671 5671 5668 5664 5661 5659 5658 5656 5656 5654 5653 5652 5648 5645 5641 5637 5635 5631 5633 5632 5629 5628 5626 5625 5623 5620 5611 5617 5624 5625 5631 5632 5626 5624 5625 5623 5621 5617 5614
5665 5666 5663 5662 5661 5659 5656 5651 5646 5642 5638 5639 5638 5638 5637 5636 5634 5630 5628 5626 5623 5620 5619 5616 5615 5615 5611 5613 5609 5608 5609 5605 5597 5601 5611 5618 5616 5612 5610 5608 5610 5606 5605
5659 5656 5654 5653 5650 5645 5642 5639 5635 5631 5628 5627 5625 5622 5620 5620 5618 5617 5614 5612 5605 5601 5600 5602 5600 5596 5596 5595 5601 5598 5596 5593 5586 5585 5585 5591 5595 5598 5602 5599 5598 5599 5597
5652 5649 5646 5641 5637 5634 5629 5625 5621 5618 5615 5612 5609 5606 5605 5602 5599 5596 5593 5590 5587 5584 5581 5579 5576 5574 5574 5575 5580 5582 5583 5583 5585 5576 5576 5576 5585 5592 5588 5586 5581 5588 5590